Regional Weather Roundup
Issued by NWS

Home | Current Version | Previous Version | Text Only | Print | Product List | Glossary Off
Versions: 1 2 3 4 5 6 7 8 9 10 11 12 13 14 15 16 17 18 19 20 21 22 23 24 25 26 27 28 29 30 31 32 33 34 35 36 37 38 39 40 41 42 43 44 45 46 47 48 49 50

000
ASUS45 KBOU 240207
RWRCO

WEATHER ROUNDUP FOR COLORADO
NATIONAL WEATHER SERVICE DENVER/BOULDER CO
800 PM MDT SAT MAY 23 2015

NOTE: "FAIR" INDICATES FEW OR NO CLOUDS BELOW 12000 FEET WITH NO
SIGNIFICANT WEATHER AND/OR OBSTRUCTIONS TO VISIBILITY.

COZ001>005-013-030-031-240300-
...NORTHWEST COLORADO...

CITY           SKY/WX    TMP DP  RH WIND       PRES   REMARKS
CRAIG          CLOUDY    47  37  68 S6        29.99R
HAYDEN         CLOUDY    43  36  75 SE10      30.00R
MEEKER         CLOUDY    47  37  68 MISG      30.00R
MOUNT WERNER   NOT AVBL
STEAMBOAT SPGS CLOUDY    41  36  83 E10       30.02F
WALDEN         CLOUDY    37  32  81 N17       30.02R
$$

COZ006>008-011-240300-
...WEST CENTRAL VALLEYS...

CITY           SKY/WX    TMP DP  RH WIND       PRES   REMARKS
GRAND JUNCTION MOCLDY    50  42  74 S3        29.96S
MONTROSE       MOCLDY    45  41  86 CALM      30.02R
EAGLE          CLOUDY    46  37  71 E9        30.02S
RIFLE          CLOUDY    54  36  50 W18G25    29.96R
DELTA          MOCLDY    53  44  70 MISG      30.00R
NUCLA          MOCLDY    45  41  87 E5        30.04R
$$

COZ017>023-064>068-240300-
...SOUTHWEST COLORADO...

CITY           SKY/WX    TMP DP  RH WIND       PRES   REMARKS
DURANGO        LGT RAIN  45  38  76 W14       30.05R
CORTEZ         CLOUDY    46  42  86 NE7       30.02F
PAGOSA SPRINGS CLOUDY    50  26  38 SW8       30.03R
TELLURIDE      LGT SNOW  34  34 100 CALM      30.08S VSB 1
WOLF CREEK PAS NOT AVBL
$$

COZ009-010-012-014-032>034-037-058>063-240300-
...CENTRAL COLORADO...

CITY           SKY/WX    TMP DP  RH WIND       PRES   REMARKS
ASPEN          MOCLDY    41  35  79 CALM      30.02R
BUENA VISTA    PTCLDY    47  28  47 N7        30.00R
COPPER MTN     FOG       30  27  86 W10       30.14R VSB<1/4 WCI  21
BERTHOUD PASS  CLOUDY    23  16  74 N13G23    30.14S VSB<1/4 WCI  11
COTTONWOOD PAS PTCLDY    43  25  49 W8        30.06R
GUNNISON       MOCLDY    46  28  49 W5        30.03R
KREMMLING      CLOUDY    36  32  87 NW7       30.06F
LEADVILLE      MOCLDY    35  25  66 N6        30.06R WCI  30
MONARCH PASS   MOCLDY    30  23  74 MISG      30.24R
SALIDA         PTCLDY    49  32  51 SW8       30.07R
SUNLIGHT       SNOW      32  32 100 CALM      30.14R VSB 1/2
WILKERSON PASS PTCLDY    32  25  74 SW8       30.12R WCI  25
$$

COZ069>075-240300-
...SAN LUIS VALLEY/SANGRE DE CRISTO MOUNTAINS...

CITY           SKY/WX    TMP DP  RH WIND       PRES   REMARKS
ALAMOSA        CLEAR     52  20  28 SW10      29.98R
LA VETA PASS   PTCLDY   N/A N/A N/A MISG      30.07R
SAGUACHE       PTCLDY    50  25  37 SW7       29.98R
$$

COZ035-036-038>040-240300-
...NORTHERN COLORADO FRONT RANGE...

CITY           SKY/WX    TMP DP  RH WIND       PRES   REMARKS
DENVER INTL AP MOCLDY    51  45  79 NW9       29.93R
DMNS CITY PARK   N/A     45  42  91 E2G28     29.96R
AURORA         TSTM      50  47  90 NW8       29.97R
FRONT RANGE AP MOCLDY    52  48  87 W5        29.94R
ERIE MUNI ARPT MOCLDY    52  47  84 CALM      29.94R
BOULDER MUN AP CLOUDY    52  46  82 S3        29.95R
CENTENNIAL     TSTM      49  43  80 CALM      29.97R
BROOMFIELD     TSTM      54  45  71 MISG      29.96R
FORT COLLINS   MOCLDY    52  45  76 CALM      29.94R
LONGMONT       MOCLDY    54  48  79 CALM      29.95R
$$

COZ041-046-047-076>085-087-088-240300-
...PIKES PEAK/PALMER DIVIDE AND SOUTHERN FOOTHILLS...

CITY           SKY/WX    TMP DP  RH WIND       PRES   REMARKS
COLO. SPRINGS  MOCLDY    54  43  66 NE10      29.95R
A. F. ACADEMY  PTCLDY    51  31  46 N7        29.95R
ELLICOTT       NOT AVBL
FALCON         MOCLDY    50  40  68 NE6       29.98R
FORT CARSON    PTCLDY    54  44  69 NE7       29.92R
LIMON          CLEAR     49  44  83 E7        29.92R
MONUMENT HILL  NOT AVBL
TRINIDAD       PTCLDY    58  46  64 N9        29.90R
$$

COZ042>045-048>051-090-091-240300-
...NORTHEAST COLORADO...

CITY           SKY/WX    TMP DP  RH WIND       PRES   REMARKS
GREELEY ARPT   MOCLDY    54  46  76 NE3       29.92R
AKRON          CLOUDY    52  49  89 NE8       29.89F
BURLINGTON     CLOUDY    53  48  83 NE5       29.89F
WRAY           TSTM     N/A N/A N/A SW9       29.91R
STERLING       CLOUDY    50  50 100 NE6       29.88S
HOLYOKE        NOT AVBL
FORT MORGAN    CLOUDY    51  48  89 NE10      29.89S
$$

COZ086-089-092>099-240300-
...SOUTHEAST COLORADO...

CITY           SKY/WX    TMP DP  RH WIND       PRES   REMARKS
PUEBLO         LGT RAIN  57  51  80 E13       29.89R
LA JUNTA       PTCLDY    56  52  86 E18       29.85R
LAMAR          MOCLDY    56  55  97 NE10      29.84S
SPRINGFIELD      N/A     58  56  93 S20G26    29.83F
$$


USA.gov is the U.S. government's official web portal to all federal, state and local government web resources and services.